Miscellaneous Local Product
Issued by NWS Hastings, NE

Home | Current Version | Previous Version | Graphics & Text | Print | Product List | Glossary On
Versions: 1 2 3 4 5 6 7 8 9 10 11 12 13 14 15 16 17 18 19 20 21 22 23 24 25 26 27 28 29 30 31 32 33 34 35 36 37 38 39 40 41 42 43 44 45 46 47 48 49 50
000
AXUS43 KGID 252002
MISGRI

GID CWA HOURLY WEATHER ROUNDUP
NATIONAL WEATHER SERVICE HASTINGS NE
300 PM CDT FRI JUL 25 2014

NOTE: "FAIR" INDICATES FEW OR NO CLOUDS BELOW 12,000 FEET WITH NO
SIGNIFICANT WEATHER AND/OR OBSTRUCTIONS TO VISIBILITY.

...SOUTH CENTRAL NEBRASKA...

CITY           SKY/WX    TMP DP  RH WIND       PRES   REMARKS
GRAND ISLAND   MOSUNNY   94  67  41 N12       29.80S HX  97
HASTINGS       MOSUNNY   91  65  41 NW10      29.81R HX  93
KEARNEY        MOSUNNY   91  66  43 N15       29.83S HX  94
ORD            PTSUNNY   88  70  55 N12       29.82S HX  93
YORK           MOSUNNY   91  73  55 NW8       29.78R HX 100
AURORA         MOSUNNY   90  72  54 N7        29.79S HX  97
LEXINGTON      MOSUNNY   91  68  47 N5        29.86S HX  94
HOLDREGE       MOSUNNY   89  67  48 N6        29.85R HX  92
HEBRON         MOSUNNY   96  64  33 SW6       29.75F HX  98

...NEBRASKA PANHANDLE...

CITY           SKY/WX    TMP DP  RH WIND       PRES   REMARKS
CHADRON        SUNNY     83  43  24 SE5       29.95F
ALLIANCE       PTSUNNY   86  44  23 E7        29.98F
SCOTTSBLUFF    PTSUNNY   87  47  24 E8        29.99F
SIDNEY         MOSUNNY   90  50  25 VRB7      30.03F

...WESTERN AND NORTH CENTRAL NEBRASKA...

CITY           SKY/WX    TMP DP  RH WIND       PRES   REMARKS
VALENTINE      SUNNY     89  63  41 N16       29.88F HX  90
AINSWORTH      SUNNY     86  66  51 N10G16    29.88S
ONEILL         SUNNY     92  61  36 N10       29.82S HX  92
BROKEN BOW     MOSUNNY   89  70  53 N12       29.86F HX  94
IMPERIAL       MOSUNNY   90  60  36 N10       29.95F
NORTH PLATTE   MOSUNNY   90  66  45 N8        29.89F HX  92
MCCOOK         MOSUNNY   95  64  35 N14       29.88S HX  97

...EASTERN NEBRASKA...

CITY           SKY/WX    TMP DP  RH WIND       PRES   REMARKS
NORFOLK        MOSUNNY   91  72  53 NW14      29.77R HX  98
SO SIOUX CITY  MOSUNNY   86  72  62 SW5       29.76F HX  92
COLUMBUS       MOSUNNY   90  73  58 NW6       29.76S HX  98
ALBION         MOSUNNY   86  72  63 N8        29.80R HX  92
OMAHA EPPLEY   MOSUNNY   91  74  57 SE8       29.73S HX 100
OFFUTT AFB     PTSUNNY   93  79  64 SE6       29.72F HX 110
MILLARD        PTSUNNY   93  74  53 S6        29.72S HX 103
LINCOLN        MOSUNNY   99  70  38 SW12G18   29.74S HX 106
NEBRASKA CITY  MOSUNNY   97  66  36 SW14      29.72F HX 100
BEATRICE       MOSUNNY   96  71  43 SW7       29.73F HX 104
FALLS CITY     SUNNY    100  72  40 S12G23    29.74F HX 109

...NORTHERN KANSAS...

CITY           SKY/WX    TMP DP  RH WIND       PRES   REMARKS
GOODLAND       MOSUNNY   94  62  34 N10G21    29.96S HX  94
HILL CITY      SUNNY    103  59  23 NE9       29.82S HX 103
NORTON         CLEAR     93  55  27 N14       29.84R HX  91
PHILLIPSBURG   SUNNY    100  55  22 CALM      29.79S HX  99
SMITH CENTER   SUNNY    100  61  27 SW3       29.78S HX 101
HAYS           SUNNY     99  64  32 SW5       29.79F HX 101
RUSSELL        SUNNY    100  63  29 S14       29.77F HX 102
CONCORDIA      PTSUNNY  100  66  32 S12       29.76F HX 104
SALINA         MOSUNNY  106  63  24 SW18G31   29.76F HX 109
TOPEKA         SUNNY    101  68  34 S14G21    29.77F HX 106



USA.gov is the U.S. government's official web portal to all federal, state and local government web resources and services.